Lid_Strength_Index
6 6 6 7 7 7 7 7 8 10 9 10 6 5 5 4 4 4 4 4 4 4 3 3 2 2 1 1 1 0 1 1 1 0 -0 0 0 -0 -1 -1 -0 -1 -0 -0
8 6 7 7 7 7 7 7 7 7 9 7 6 5 5 5 5 5 4 4 4 3 3 3 2 2 2 1 1 1 1 1 0 1 0 0 0 0 -0 -0 -0 -1 -0 -0
9 7 7 9 7 7 6 6 6 8 7 5 6 6 5 5 5 4 4 3 3 3 3 2 2 2 2 1 1 1 1 1 1 1 1 1 0 0 0 0 -0 0 -0 -0
9 8 11 7 5 5 6 6 5 6 6 5 5 5 4 4 4 4 4 3 3 3 2 2 1 1 1 1 1 1 1 1 1 1 1 1 1 1 0 0 0 0 0 -0
10 10 8 7 6 6 6 7 5 6 6 5 5 5 5 4 3 4 4 3 3 2 2 1 1 1 1 1 1 2 2 1 1 1 1 1 1 1 1 1 1 0 -0 0
8 11 13 7 5 4 4 9 5 5 5 5 5 7 7 4 3 4 3 3 2 2 1 2 1 1 1 2 2 2 2 1 0 0 0 1 1 1 0 0 1 1 0 -0
9 10 9 7 5 4 10 9 5 4 4 4 6 6 4 3 4 3 3 3 2 2 2 2 1 1 2 2 2 2 1 1 1 1 1 1 1 0 0 1 0 1 1 0
8 11 13 5 6 8 7 5 4 4 4 5 4 4 4 3 4 3 3 3 2 3 3 2 1 1 2 2 1 1 1 1 1 1 1 1 1 1 1 1 1 1 1 1
9 11 6 5 6 5 4 4 4 4 3 4 4 4 4 4 4 3 3 3 2 2 2 2 1 1 2 2 1 1 1 1 1 1 1 1 1 1 2 2 2 2 2 2
7 6 6 5 4 4 4 4 3 3 3 3 4 4 4 3 3 3 3 3 2 2 3 2 2 1 1 2 1 1 2 2 2 1 1 1 1 2 3 3 3 2 2 3
7 6 5 5 4 4 4 4 3 3 3 3 3 3 3 4 3 3 3 2 2 2 2 2 2 1 1 1 1 2 2 2 2 2 3 5 7 6 3 3 5 3 1 2
9 6 5 6 4 4 4 4 3 3 3 3 3 3 3 3 3 2 2 2 2 2 2 2 2 1 1 0 1 1 2 2 2 2 4 6 7 8 11 12 11 10 10 5
6 4 4 4 4 3 4 3 3 3 3 3 2 2 2 3 2 3 2 2 2 2 1 1 1 1 0 0 0 1 2 2 1 3 3 4 4 6 7 9 13 13 13 11
3 4 5 4 5 3 3 3 3 2 2 2 2 2 2 2 2 2 2 1 1 1 1 1 1 1 0 0 0 1 1 6 1 2 2 2 3 3 2 3 6 5 10 9
3 3 3 3 4 3 3 3 4 4 4 3 3 3 2 3 2 2 1 1 1 1 1 1 1 1 0 -0 1 1 1 1 1 1 1 1 1 2 2 3 3 3 3 8
4 3 3 3 4 4 3 3 4 4 3 3 3 3 3 1 1 1 1 1 2 2 1 1 1 0 0 0 0 1 1 3 2 1 1 1 1 1 2 2 1 1 2 2
4 4 4 4 3 3 3 3 4 3 3 3 3 2 2 2 1 1 1 1 1 1 1 1 1 0 0 0 0 1 1 1 2 1 1 1 1 1 1 2 2 3 3 3
3 3 3 3 3 3 3 2 2 2 2 2 1 2 2 2 2 2 1 1 1 1 0 -0 -0 -0 -0 0 0 0 1 1 1 1 2 3 3 3 4 4 4 3 3 4
2 3 2 2 2 2 2 2 2 1 1 1 2 2 2 1 1 1 1 1 1 2 1 -0 1 1 -0 0 0 0 1 2 2 3 2 4 4 4 4 3 2 2 3 4
2 2 2 2 2 2 2 2 1 2 1 1 1 2 2 2 1 1 1 2 1 1 -0 -0 -0 0 -0 0 1 0 1 1 2 4 3 4 5 3 2 4 2 2 3 3
3 2 2 2 2 2 2 1 2 2 1 1 2 2 2 1 1 1 2 3 1 -0 0 1 0 0 -0 0 1 0 1 1 1 2 3 4 3 4 3 2 2 2 3 2
2 2 2 2 2 2 1 1 1 1 1 1 1 1 2 2 2 1 1 2 1 2 1 0 0 1 0 2 0 1 1 1 1 2 2 2 2 2 3 2 3 3 2 1
2 2 2 2 2 2 1 1 2 2 2 2 2 2 2 2 2 3 4 0 0 1 0 0 2 3 4 0 0 1 1 1 1 1 1 2 2 3 2 2 3 4 4 3
2 2 2 2 1 2 3 2 1 1 1 1 2 1 2 2 2 1 1 2 3 3 1 1 2 4 5 0 0 0 1 2 1 1 2 4 2 3 3 4 5 5 5 5
2 2 2 2 3 3 2 2 1 2 2 2 1 1 1 2 2 2 2 2 3 2 1 4 4 5 0 0 -0 0 1 2 3 2 2 3 3 3 4 3 4 4 4 3
2 2 2 2 2 2 2 2 2 2 2 2 2 1 2 2 2 2 2 3 2 2 1 2 1 1 1 0 1 1 3 3 3 2 3 2 3 3 3 3 4 4 4 3
2 3 2 2 2 1 2 2 2 2 2 2 2 1 2 2 3 4 4 4 4 4 3 2 1 1 1 2 3 3 4 4 5 3 4 4 4 4 5 4 3 4 3 3